"TOA5","AWS1","CR1000","7964","CR1000.Std.14","CPU:AWS1_114.CR1","64363","TBL110"
"TIMESTAMP","RECORD","Wind_spd_WVc(1)","Wind_spd_WVc(2)","Air_Temp_Avg","Humidity_Avg","SW_upper_Wm2_Avg","Rain_Tot","Press_Avg","Issui_Tot","Depth_cm","SR50A_Raw","Quality","Ground_Temp_Avg(1)","Ground_Temp_Avg(2)","SW_lower_Wm2_Avg","Albedo_Avg","SWC_per(1)","SWC_per(2)","Period(1)","Period(2)"
"TS","RN","","","","","","","","","","","","","","","","","","",""
"","","WVc","WVc","Avg","Avg","Avg","Tot","Avg","Tot","Smp","Smp","Smp","Avg","Avg","Avg","Avg","Smp","Smp","Smp","Smp"
"2016-06-10 00:00:00",239245,0.114,69.03,12.07,100,0.1493508,0,864.8791,0,29.97,2.818,276,16.27,15.72,0.4547449,0.498,48.97,54.8,33.04,34.46
"2016-06-10 00:10:00",239246,0.372,103.5,12.09,100,0,0,864.8791,0,17.95,2.936,366,16.24,15.72,0.3183214,0,49.03,54.86,33.05,34.48
"2016-06-10 00:20:00",239247,0.678,73.27,12.13,100,0,0,864.8581,0,18.89,2.927,358,16.19,15.71,0.3296901,0,49.03,54.86,33.05,34.48
"2016-06-10 00:30:00",239248,0.499,12.96,12.05,100,0,0,864.8791,0,18.33,2.933,353,16.22,15.71,0.05684311,0,48.97,54.86,33.04,34.48
"2016-06-10 00:40:00",239249,0.597,80.1,11.97,100,0,0,864.7907,0,-16.46,3.274,181,16.18,15.71,0.2501097,0,48.97,54.92,33.04,34.49
"2016-06-10 00:50:00",239250,0.098,158.1,11.96,100,0,0,864.7022,0,27.38,2.845,356,16.15,15.71,0.4547449,0,48.97,54.92,33.04,34.49
"2016-06-10 01:00:00",239251,0.02,335.5,11.86,100,0,0,864.7633,0,24.77,2.871,280,16.12,15.73,0.4547449,0,48.97,54.92,33.04,34.49
"2016-06-10 01:10:00",239252,0.088,162.2,11.69,100,0,0,864.8686,0,23.72,2.882,279,16.09,15.75,0.4509554,0,48.97,54.92,33.04,34.49
"2016-06-10 01:20:00",239253,0.109,119.7,11.43,100,0,0,864.8455,0,23.74,2.884,261,16.06,15.75,0.04547449,0,48.97,54.97,33.04,34.51
"2016-06-10 01:30:00",239254,0.021,332,11.23,100,0,0,864.8412,0,23.66,2.885,292,16.07,15.75,0.3637959,0,49.03,54.97,33.05,34.51
"2016-06-10 01:40:00",239255,0,0,11.03,100,0,0,864.8749,0,24.22,2.881,309,16.08,15.75,0.4433763,0,48.97,55.03,33.04,34.52
"2016-06-10 01:50:00",239256,0,0,10.72,100,0,0,864.8665,0,25.3,2.872,307,16.04,15.75,0.3789541,0,48.97,55.03,33.04,34.52
"2016-06-10 02:00:00",239257,0.064,236,10.58,100,0,0,864.8791,0,-13.2,3.249,170,16.02,15.76,0.735171,0,49.03,55.09,33.05,34.53
"2016-06-10 02:10:00",239258,0,0,10.51,100,0,0,864.8791,0,-16.18,3.28,188,15.98,15.73,0.7124337,0,48.97,55.09,33.04,34.53
"2016-06-10 02:20:00",239259,0.011,286,10.43,100,0,0,864.9149,0,28.5,2.841,281,16.01,15.66,1.049703,0,49.03,55.09,33.05,34.53
"2016-06-10 02:30:00",239260,0.013,115.6,10.33,100,0,0,865.0097,0,-24.41,3.362,234,15.9,15.67,1.125494,0,48.97,55.15,33.04,34.55
"2016-06-10 02:40:00",239261,0.133,155.4,9.99,100,0,0,864.8876,0,-13.74,3.259,170,15.92,15.67,0.5911684,0,49.03,55.15,33.05,34.55
"2016-06-10 02:50:00",239262,0.064,294.3,9.96,100,0,0,864.8791,0,28.68,2.841,336,15.93,15.67,1.114125,0,49.03,55.15,33.05,34.55
"2016-06-10 03:00:00",239263,0.332,55.15,10.6,100,0,0,864.8791,0,29.31,2.832,233,15.93,15.67,2.046352,0,49.03,55.15,33.05,34.55
"2016-06-10 03:10:00",239264,0.157,357,10.53,100,0,0,864.8896,0,26.84,2.859,312,15.83,15.67,1.102756,0,48.97,55.2,33.04,34.56
"2016-06-10 03:20:00",239265,0.027,185.2,10.03,100,0,0,865.0497,0,28.95,2.839,253,15.81,15.67,0.7616977,0,49.03,55.2,33.05,34.56
"2016-06-10 03:30:00",239266,0,0,10.11,100,0,0,865.1908,0,27.72,2.85,225,15.85,15.67,1.576449,0,49.03,55.2,33.05,34.56
"2016-06-10 03:40:00",239267,0,0,10.04,100,0.235817,0,865.3846,0,27.78,2.852,230,15.79,15.67,1.205074,1.575,49.03,55.26,33.05,34.57
"2016-06-10 03:50:00",239268,0,0,9.69,100,0,0,865.5742,0,27.33,2.856,297,15.74,15.67,0.2463202,0,49.03,55.26,33.05,34.57
"2016-06-10 04:00:00",239269,0,0,9.88,100,0,0,865.6331,0,-13.64,3.257,170,15.75,15.68,0.4547449,0,48.97,55.26,33.04,34.57
"2016-06-10 04:10:00",239270,0,0,10.03,100,0,0,865.6395,0,28.11,2.847,270,15.73,15.68,0.4509554,0,49.03,55.2,33.05,34.56
"2016-06-10 04:20:00",239271,0.018,133.8,10.12,100,0.08646623,0,865.6563,0,28.01,2.848,242,15.65,15.7,0.4547449,0.225,49.03,55.26,33.05,34.57
"2016-06-10 04:30:00",239272,0,0,10.16,100,1.049386,0,865.7722,0,27.41,2.853,230,15.67,15.69,0.6366429,0.7,48.97,55.32,33.04,34.59
"2016-06-10 04:40:00",239273,0.13,139.3,10.17,100,3.100994,0,865.8417,0,28.1,2.848,269,15.67,15.66,0.6101161,0.221,48.97,55.26,33.04,34.57
"2016-06-10 04:50:00",239274,0.107,178.8,9.82,100,5.482745,0,865.8838,0,27.84,2.851,237,15.6,15.6,0.6783278,0.118,49.03,55.26,33.05,34.57
"2016-06-10 05:00:00",239275,0.08,177.9,9.87,100,15.42636,0,866.0439,0,28.63,2.843,322,15.57,15.58,2.538992,0.164,49.03,55.26,33.05,34.57
"2016-06-10 05:10:00",239276,0.1,210.5,9.91,100,27.86964,0,866.1471,0,26.63,2.862,256,15.58,15.58,4.520922,0.162,49.03,55.32,33.05,34.59
"2016-06-10 05:20:00",239277,0.02,113.5,9.93,100,26.80846,0,866.1702,0,28.11,2.847,250,15.58,15.58,3.907017,0.146,49.03,55.32,33.05,34.59
"2016-06-10 05:30:00",239278,0.346,203.6,10.06,100,25.24028,0,866.1639,0,27.27,2.855,237,15.58,15.58,3.558379,0.141,49.03,55.32,33.05,34.59
"2016-06-10 05:40:00",239279,0.239,187.3,10.16,100,38.38314,0,866.1428,0,25.94,2.867,229,15.55,15.58,5.574415,0.145,49.03,55.32,33.05,34.59
"2016-06-10 05:50:00",239280,0.053,189.3,10.36,100,48.51935,0,866.145,0,25.44,2.871,244,15.53,15.58,6.950018,0.143,49.03,55.32,33.05,34.59
"2016-06-10 06:00:00",239281,0.135,175.4,10.56,100,73.95615,0,866.1428,0,-11.52,3.233,178,15.52,15.58,10.8343,0.146,49.08,55.37,33.07,34.6
"2016-06-10 06:10:00",239282,0.067,191.6,10.78,100,76.86455,0,866.2672,0,-11.98,3.236,170,15.46,15.58,11.20946,0.146,49.03,55.37,33.05,34.6
"2016-06-10 06:20:00",239283,0.167,191,10.83,100,86.15182,0,866.3093,0,26.87,2.855,270,15.46,15.58,12.42212,0.144,49.08,55.37,33.07,34.6
"2016-06-10 06:30:00",239284,0.19,158.7,10.69,100,115.5818,0,866.324,0,29.23,2.833,270,15.48,15.58,17.46978,0.151,49.08,55.37,33.07,34.6
"2016-06-10 06:40:00",239285,0.15,122.9,10.63,100,128.5949,0,866.1618,0,13.81,2.984,429,15.47,15.58,19.24329,0.149,49.08,55.43,33.07,34.61
"2016-06-10 06:50:00",239286,0.233,115.9,10.94,100,197.7837,0,866.1428,0,28.78,2.835,297,15.44,15.58,30.18369,0.153,49.03,55.43,33.05,34.61
"2016-06-10 07:00:00",239287,0.22,125,11.22,100,206.7801,0,866.1428,0,-10.09,3.217,173,15.45,15.58,31.26371,0.151,49.03,55.43,33.05,34.61
"2016-06-10 07:10:00",239288,0.124,130.5,11.11,100,238.0337,0,866.1407,0,18.18,2.938,243,15.45,15.58,35.88695,0.15,49.03,55.43,33.05,34.61
"2016-06-10 07:20:00",239289,0.233,25.15,11.45,100,204.8699,0,866.3766,0,-10.26,3.216,176,15.45,15.58,30.51717,0.149,49.08,55.43,33.07,34.61
"2016-06-10 07:30:00",239290,0.401,23,11.33,100,197.8308,0,866.5539,0,-19.96,3.312,171,15.45,15.58,29.80474,0.151,49.08,55.43,33.07,34.61
"2016-06-10 07:40:00",239291,0.146,118.8,11.44,100,196.5784,0,866.6228,0,318,0,0,15.45,15.57,28.89865,0.147,49.08,55.49,33.07,34.63
"2016-06-10 07:50:00",239292,0.157,314.1,11.8,100,250.2715,0,866.5854,0,7.008,3.045,248,15.45,15.56,38.85975,0.155,49.08,55.49,33.07,34.63
"2016-06-10 08:00:00",239293,0.41,139.4,11.95,100,322.9175,0,866.5806,0,-9.57,3.204,180,15.47,15.55,50.85469,0.157,49.03,55.49,33.05,34.63
"2016-06-10 08:10:00",239294,0.625,57,12.36,100,738.1576,0,866.4969,0,27.24,2.843,260,15.42,15.48,118.7685,0.161,49.08,55.49,33.07,34.63
"2016-06-10 08:20:00",239295,0.338,50.58,12.88,99.8,795.9708,0,866.3174,0,-11.34,3.215,184,15.41,15.42,127.0676,0.16,49.03,55.49,33.05,34.63
"2016-06-10 08:30:00",239296,0.439,38.21,13.83,94.8,820.7275,0,866.3106,0,-21.53,3.312,197,15.38,15.37,129.854,0.158,49.08,55.49,33.07,34.63
"2016-06-10 08:40:00",239297,0.703,21.78,13.97,91.5,839.9941,0,866.3047,0,318,0,0,15.44,15.37,132.9539,0.158,49.03,55.49,33.05,34.63
"2016-06-10 08:50:00",239298,0.356,8.74,14.45,93.4,897.2563,0,866.2916,0,-17.42,3.265,267,15.42,15.37,142.7797,0.159,49.08,55.49,33.07,34.63
"2016-06-10 09:00:00",239299,0.543,351.4,15.06,89,808.5267,0,866.2557,0,26.59,2.838,252,15.35,15.32,124.8433,0.153,49.03,55.49,33.05,34.63
"2016-06-10 09:10:00",239300,0.258,323.5,15.23,87.6,895.0139,0,866.2258,0,318,0,0,15.35,15.35,139.274,0.154,49.08,55.55,33.07,34.64
"2016-06-10 09:20:00",239301,0.569,7.634,15.14,88.1,818.8425,0,866.2999,0,-19.41,3.284,278,15.38,15.35,125.8912,0.151,49.08,55.49,33.07,34.63
"2016-06-10 09:30:00",239302,0.445,324,15.4,87,961.5281,0,866.3036,0,-18.38,3.272,277,15.41,15.35,150.8118,0.157,49.03,55.49,33.05,34.63
"2016-06-10 09:40:00",239303,0.391,6.209,15.59,84.7,1010.829,0,866.2977,0,318,0,0,15.46,15.35,158.0146,0.156,49.08,55.55,33.07,34.64
"2016-06-10 09:50:00",239304,0.583,3.631,16.44,80.1,1068.025,0,866.304,0,-26.46,3.343,207,15.47,15.35,167.6067,0.157,49.03,55.55,33.05,34.64
"2016-06-10 10:00:00",239305,0.498,330.9,16.89,78.35,1080.744,0,866.2914,0,-15.15,3.232,177,15.44,15.34,168.1089,0.156,49.03,55.49,33.05,34.63
"2016-06-10 10:10:00",239306,0.514,33.64,17.27,76.51,1108.785,0,866.1904,0,24.16,2.849,316,15.44,15.29,174.6272,0.157,49.03,55.49,33.05,34.63
"2016-06-10 10:20:00",239307,0.502,8.6,17.72,75.1,1071.1,0,866.0535,0,25.04,2.839,295,15.48,15.27,165.063,0.153,49.03,55.49,33.05,34.63
"2016-06-10 10:30:00",239308,0.636,28.78,17.78,74.6,1064.72,0,866.064,0,27.82,2.811,291,15.53,15.25,168.3752,0.157,48.97,55.49,33.04,34.63
"2016-06-10 10:40:00",239309,0.298,99,18.24,73.78,1143.44,0,866.0556,0,24.27,2.842,326,15.56,15.25,183.4522,0.16,49.03,55.49,33.05,34.63
"2016-06-10 10:50:00",239310,0.449,337,18.43,73.47,1119.188,0,866.0514,0,22.59,2.86,306,15.59,15.23,175.3015,0.157,48.97,55.49,33.04,34.63
"2016-06-10 11:00:00",239311,0.472,357.8,18.44,73.08,1113.23,0,866.0459,0,318,0,0,15.68,15.17,174.2595,0.157,48.97,55.49,33.04,34.63
"2016-06-10 11:10:00",239312,0.429,315.3,19.23,69.85,1140.965,0,866.0446,0,318,0,0,15.76,15.17,177.3459,0.155,48.97,55.55,33.04,34.64
"2016-06-10 11:20:00",239313,0.302,324,19.47,70.48,1136.732,0,866.0498,0,23.99,2.839,284,15.88,15.17,176.2843,0.155,48.92,55.49,33.03,34.63
"2016-06-10 11:30:00",239314,0.412,292.4,19.92,66.52,1153.535,0,866.0384,0,25.4,2.826,334,15.95,15.18,181.9826,0.158,48.92,55.49,33.03,34.63
"2016-06-10 11:40:00",239315,0.503,356.3,19.4,65.01,1131.486,0,866.0408,0,-16.57,3.233,180,16.06,15.18,179.6377,0.159,48.92,55.49,33.03,34.63
"2016-06-10 11:50:00",239316,0.467,340.4,19.81,66.92,1129.201,0,865.9861,0,24.94,2.83,338,16.19,15.18,180.138,0.16,48.86,55.49,33.01,34.63
"2016-06-10 12:00:00",239317,0.482,260.5,20.03,65.33,1115.291,0,865.9461,0,318,0,0,16.28,15.18,178.5025,0.16,48.86,55.49,33.01,34.63
"2016-06-10 12:10:00",239318,0.337,316.2,20.22,63.57,1110.078,0,865.8976,0,25.5,2.821,412,16.43,15.18,178.8228,0.161,48.86,55.49,33.01,34.63
"2016-06-10 12:20:00",239319,0.412,219,20.56,61.47,1098.754,0,865.9271,0,27.04,2.806,256,16.57,15.18,177.0946,0.161,48.86,55.55,33.01,34.64
"2016-06-10 12:30:00",239320,0.505,133.2,20.63,58.62,1092.267,0,865.8008,0,318,0,0,16.67,15.17,176.174,0.161,48.81,55.49,33,34.63
"2016-06-10 12:40:00",239321,0.519,329.7,20.57,57.41,1092.596,0,865.8051,0,27.39,2.803,292,16.83,15.14,175.5217,0.161,48.81,55.43,33,34.61
"2016-06-10 12:50:00",239322,0.46,98.6,20.87,59.07,1095.5,0,865.8029,0,25.99,2.814,256,16.95,15.14,175.7988,0.16,48.81,55.43,33,34.61
"2016-06-10 13:00:00",239323,0.253,148.2,21.19,57.56,1084.018,0,865.8008,0,25.38,2.818,228,17.1,15.17,171.8057,0.158,48.75,55.49,32.99,34.63
"2016-06-10 13:10:00",239324,0.221,272.8,21.25,54.32,1063.163,0,865.7988,0,26.92,2.803,251,17.24,15.18,166.854,0.157,48.7,55.49,32.97,34.63
"2016-06-10 13:20:00",239325,0.48,155.4,21.33,52.12,1051.107,0,865.8051,0,22.78,2.842,269,17.33,15.18,164.1368,0.156,48.75,55.43,32.99,34.61
"2016-06-10 13:30:00",239326,0.26,289.9,21.17,47.56,1025.37,0,865.9201,0,25.35,2.82,245,17.49,15.15,162.2979,0.158,48.7,55.49,32.97,34.63
"2016-06-10 13:40:00",239327,0.267,254.6,21.4,43.71,1010.39,0,865.9717,0,25.87,2.811,329,17.59,15.16,161.7802,0.16,48.65,55.49,32.96,34.63
"2016-06-10 13:50:00",239328,0.306,181,22.04,41.4,994.5651,0,866.051,0,-10.6,3.162,183,17.74,15.19,157.2263,0.158,48.59,55.49,32.95,34.63
"2016-06-10 14:00:00",239329,0.45,188,21.89,40.71,975.4477,0,865.986,0,24.77,2.822,244,17.84,15.15,154.1851,0.158,48.65,55.43,32.96,34.61
"2016-06-10 14:10:00",239330,0.461,239.3,21.92,41.16,948.7545,0,865.8237,0,-18.03,3.232,186,17.94,15.14,151.647,0.16,48.65,55.43,32.96,34.61
"2016-06-10 14:20:00",239331,0.243,135.2,22.03,40.56,925.2461,0,865.7914,0,25.76,2.81,242,18.05,15.14,144.7774,0.156,48.54,55.43,32.93,34.61
"2016-06-10 14:30:00",239332,0.525,110.4,22.16,43.38,897.0638,0,865.7901,0,24.81,2.82,251,18.17,15.16,137.2476,0.153,48.54,55.43,32.93,34.61
"2016-06-10 14:40:00",239333,0.299,219.1,22.15,43.04,864.9603,0,865.7918,0,24.91,2.819,261,18.25,15.23,126.2973,0.146,48.54,55.43,32.93,34.61
"2016-06-10 14:50:00",239334,0.514,171.2,21.88,43.65,839.0151,0,865.7971,0,25.17,2.819,256,18.36,15.25,112.0816,0.134,48.48,55.43,32.92,34.61
"2016-06-10 15:00:00",239335,0.429,234.6,21.84,41.88,807.5927,0,865.7605,0,-17.92,3.231,197,18.44,15.26,94.80598,0.117,48.48,55.37,32.92,34.6
"2016-06-10 15:10:00",239336,0.435,335.5,21.9,42.88,773.7661,0,865.7903,0,-10.98,3.167,187,18.55,15.23,72.21085,0.093,48.43,55.37,32.9,34.6
"2016-06-10 15:20:00",239337,0.349,197.3,21.49,44.21,746.5714,0,865.7166,0,23.4,2.836,300,18.6,15.25,51.40257,0.069,48.43,55.37,32.9,34.6
"2016-06-10 15:30:00",239338,0.4,4.715,21.72,43.87,485.2201,0,865.7735,0,-14.56,3.201,202,18.67,15.34,31.64701,0.089,48.43,55.37,32.9,34.6
"2016-06-10 15:40:00",239339,0.27,180.3,21.63,42.22,277.8548,0,865.7988,0,25.54,2.815,249,18.74,15.35,34.99963,0.152,48.43,55.37,32.9,34.6
"2016-06-10 15:50:00",239340,0.334,4.253,21.42,43.96,97.57137,0,865.8072,0,25.77,2.814,304,18.82,15.35,25.4343,0.263,48.38,55.37,32.89,34.6
"2016-06-10 16:00:00",239341,0.377,179.8,21.15,44.02,71.83286,0,865.9988,0,20.14,2.87,242,18.93,15.45,16.43342,0.23,48.32,55.37,32.88,34.6
"2016-06-10 16:10:00",239342,0.321,213.1,20.86,47.72,120.7482,0,866.0514,0,21.52,2.859,281,18.96,15.45,14.88782,0.183,48.32,55.32,32.88,34.59
"2016-06-10 16:20:00",239343,0.387,226.1,20.59,48.58,79.8204,0,866.0829,0,21.71,2.858,257,18.97,15.46,13.59224,0.179,48.27,55.32,32.86,34.59
"2016-06-10 16:30:00",239344,0.351,186.1,20.32,51.6,55.67705,0,866.2535,0,18.88,2.887,253,19.07,15.53,11.0238,0.198,48.32,55.32,32.88,34.59
"2016-06-10 16:40:00",239345,0.391,184.2,20.08,52.65,50.77373,0,866.304,0,18.94,2.886,251,19.11,15.53,9.47441,0.187,48.27,55.32,32.86,34.59
"2016-06-10 16:50:00",239346,0.287,202.3,19.93,55.28,46.53833,0,866.3167,0,19.57,2.881,255,19.18,15.57,8.182617,0.176,48.27,55.32,32.86,34.59
"2016-06-10 17:00:00",239347,0.244,188.2,19.75,55.08,45.37929,0,866.5294,0,-23.4,3.298,201,19.2,15.59,7.523462,0.166,48.21,55.32,32.85,34.59
"2016-06-10 17:10:00",239348,0.254,199.8,19.46,56.69,43.43053,0,866.6389,0,-21.69,3.283,205,19.24,15.65,6.803695,0.157,48.21,55.32,32.85,34.59
"2016-06-10 17:20:00",239349,0.274,195.7,19.22,58.04,46.89586,0,866.8031,0,-23.28,3.3,202,19.27,15.67,6.85673,0.146,48.27,55.32,32.86,34.59
"2016-06-10 17:30:00",239350,0.283,195.5,19.04,58.46,43.06152,0,866.8115,0,20.45,2.877,288,19.27,15.67,5.928651,0.138,48.21,55.26,32.85,34.57
"2016-06-10 17:40:00",239351,0.238,183.5,18.86,59.91,39.92267,0,867.0242,0,-21.65,3.286,234,19.27,15.74,5.235449,0.131,48.16,55.32,32.84,34.59
"2016-06-10 17:50:00",239352,0.092,187.8,18.54,61.46,38.89338,0,867.0768,0,19.08,2.893,274,19.27,15.79,5.06499,0.13,48.21,55.26,32.85,34.57
"2016-06-10 18:00:00",239353,0.019,128.6,18.36,63.03,29.8096,0,867.2115,0,19.25,2.892,303,19.2,15.8,3.508002,0.117,48.16,55.32,32.84,34.59
"2016-06-10 18:10:00",239354,0.08,147.6,18.05,64.5,23.32325,0,867.302,0,18.75,2.899,257,19.17,15.84,2.451106,0.105,48.16,55.26,32.84,34.57
"2016-06-10 18:20:00",239355,0.086,158,17.69,65.87,18.94661,0,867.3146,0,18.55,2.903,290,19.2,15.9,1.924557,0.101,48.16,55.26,32.84,34.57
"2016-06-10 18:30:00",239356,0.037,159.3,17.38,66.86,14.68001,0,867.4747,0,-23.57,3.312,200,19.23,15.97,1.458623,0.1,48.16,55.26,32.84,34.57
"2016-06-10 18:40:00",239357,0,0,17.24,67.66,10.85697,0,867.6053,0,-16.56,3.246,201,19.19,15.96,1.219962,0.113,48.16,55.26,32.84,34.57
"2016-06-10 18:50:00",239358,0,0,16.9,68.57,6.047437,0,867.7463,0,-23.8,3.318,234,19.14,16.04,0.5721005,0.091,48.11,55.26,32.82,34.57
"2016-06-10 19:00:00",239359,0.049,62.54,16.52,69.62,1.642533,0,867.7695,0,-19.59,3.279,248,19.2,16.08,0.03031033,0.02,48.11,55.26,32.82,34.57
"2016-06-10 19:10:00",239360,0.129,78.88,16.28,70.35,0,0,867.8179,0,-23.61,3.319,207,19.16,16.1,0,0,48.16,55.2,32.84,34.56
"2016-06-10 19:20:00",239361,0.214,107.9,15.99,72.12,0,0,867.8201,0,-21.68,3.302,200,19.13,16.12,0.007578068,0,48.16,55.26,32.84,34.57
"2016-06-10 19:30:00",239362,0.186,33.54,15.83,74.35,0,0,867.8407,0,-23.36,3.318,192,19.12,16.16,0.02652453,0,48.16,55.26,32.84,34.57
"2016-06-10 19:40:00",239363,0.286,58.83,15.84,76.88,0,0,867.9882,0,-20.95,3.296,196,19.06,16.15,0.1667279,0,48.11,55.2,32.82,34.56
"2016-06-10 19:50:00",239364,0.257,39.41,15.65,80.7,0,0,868.1118,0,18.05,2.918,277,19.04,16.19,0.07199938,0,48.11,55.2,32.82,34.56
"2016-06-10 20:00:00",239365,0.135,26.72,15.39,85.4,0,0,868.3196,0,17.99,2.919,274,19,16.26,0.03410568,0,48.11,55.2,32.82,34.56
"2016-06-10 20:10:00",239366,0.015,206.2,15.33,92.3,0,0,868.4057,0,-21.99,3.309,189,18.97,16.28,0.03031619,0,48.11,55.2,32.82,34.56
"2016-06-10 20:20:00",239367,0,0,15.16,97.5,0,0,868.6116,0,-21.89,3.308,191,18.96,16.26,0.1023176,0,48.11,55.2,32.82,34.56
"2016-06-10 20:30:00",239368,0.018,66.92,15.19,99.8,0.09039652,0,868.8207,0,-21.27,3.301,183,18.92,16.3,0.6366428,0.595,48.05,55.2,32.81,34.56
"2016-06-10 20:40:00",239369,0,0,15.17,99.1,0.471634,0,868.9139,0,-21.79,3.309,196,18.91,16.38,0.651801,1.382,48.11,55.2,32.82,34.56
"2016-06-10 20:50:00",239370,0.047,68.26,15.13,100,0.07467539,0,868.9147,0,-20.86,3.297,186,18.84,16.36,0.5191671,0.498,48.11,55.2,32.82,34.56
"2016-06-10 21:00:00",239371,0.097,97,15.48,99.5,0.4205403,0,868.8972,0,-21.22,3.3,182,18.77,16.38,0.82612,2.049,48.05,55.15,32.81,34.55
"2016-06-10 21:10:00",239372,0.076,126.5,15.48,99.3,0.1572113,0,868.9265,0,-22.81,3.316,184,18.74,16.41,0.5873788,1.832,48.05,55.2,32.81,34.56
"2016-06-10 21:20:00",239373,0.184,158.7,15.28,100,0,0,869.0534,0,-21.17,3.301,193,18.73,16.44,0.140213,0,48.05,55.2,32.81,34.56
"2016-06-10 21:30:00",239374,0.513,144.1,15.2,100,0,0,869.1193,0,-23.17,3.321,200,18.66,16.45,0.03789541,0,48.11,55.2,32.82,34.56
"2016-06-10 21:40:00",239375,0.475,146.7,15.23,99.9,0,0,869.1049,0,-21.5,3.304,197,18.62,16.5,0.1212653,0,48.11,55.2,32.82,34.56
"2016-06-10 21:50:00",239376,0.491,144.5,15.14,100,0,0,869.0393,0,-23.25,3.322,201,18.59,16.53,0,0,48.05,55.2,32.81,34.56
"2016-06-10 22:00:00",239377,0.605,144.7,15.05,99.5,0,0,868.9297,0,-23.94,3.329,200,18.58,16.52,0,0,48.05,55.2,32.81,34.56
"2016-06-10 22:10:00",239378,0.663,134.3,15.01,97.7,0,0,868.9085,0,-22.04,3.311,207,18.53,16.51,0,0,48.05,55.15,32.81,34.55
"2016-06-10 22:20:00",239379,0.467,138.4,14.98,96.9,0,0,868.8828,0,18.38,2.917,349,18.52,16.57,0,0,48.05,55.15,32.81,34.55
"2016-06-10 22:30:00",239380,0.381,114.1,15,96.8,0,0,868.8915,0,18.19,2.919,312,18.49,16.55,0.02273725,0,48.11,55.15,32.82,34.55
"2016-06-10 22:40:00",239381,0.541,106.3,14.91,97,0,0,868.8947,0,18.1,2.921,385,18.44,16.54,0.03789541,0,48.05,55.15,32.81,34.55
"2016-06-10 22:50:00",239382,0.146,120,14.82,97.9,0,0,868.8945,0,17.18,2.93,430,18.41,16.54,0.01136862,0,48.11,55.15,32.82,34.55
"2016-06-10 23:00:00",239383,0.448,123,14.69,99.7,0,0,868.8993,0,17.86,2.924,304,18.38,16.53,0,0,48.05,55.15,32.81,34.55
"2016-06-10 23:10:00",239384,0.426,110.4,14.52,100,0,0,868.8132,0,18.28,2.921,341,18.34,16.51,0,0,48.05,55.15,32.81,34.55
"2016-06-10 23:20:00",239385,0.2,51.9,14.43,100,0,0,868.7008,0,18.69,2.917,328,18.34,16.51,0.04168495,0,48.05,55.09,32.81,34.53
"2016-06-10 23:30:00",239386,0.302,17.51,14.54,100,0,0,868.6635,0,18.65,2.917,304,18.28,16.52,0.231162,0,48.11,55.15,32.82,34.55
"2016-06-10 23:40:00",239387,0.178,128.2,14.43,100,0,0,868.6641,0,18.12,2.923,264,18.27,16.56,0.02273725,0,48.05,55.15,32.81,34.55
"2016-06-10 23:50:00",239388,0.633,92.4,14.31,100,0,0,868.7023,0,-31.89,3.411,216,18.27,16.59,0,0,48.05,55.15,32.81,34.55
